Date String (YYYY-MM-DD hh:mm:ss) UTC,Instrument flags,Ambient pressure (hPa),Sample flow (lpm),Bypass flow (lpm),Sample temperature (°C),Ambient temperature (°C),ASC tube jacket temperature (°C),LED temperature (°C),Box temperature (°C),Sample RH (%),Span deviation,Mass concentration (μg/m³),Mass concentration (μg/m³),Mass concentration (μg/m³)
DateTimeUTC,F1_M11,P_M11,Q1_M11,Q2_M11,T1_M11,T2_M11,T3_M11,T4_M11,T5_M11,U1_M11,ZSPAN_M11,X0_M11,X2_M11,X1_M11
2022-03-25 18:00:00,,0830.4,4.99,0.00,25.4,24.8,00.0,34.3,27.3,14.3,0000.0,0022.97,0005.57,0003.88
2022-03-25 18:01:00,,0830.5,5.00,0.00,25.5,24.8,00.0,34.4,27.3,14.7,0000.0,0024.09,0005.62,0003.89
2022-03-25 18:02:00,,0830.5,5.01,0.00,25.5,24.8,00.0,34.4,27.3,14.1,0000.0,0023.69,0005.64,0003.90
2022-03-25 18:03:00,,0830.5,4.99,0.00,25.5,24.8,00.0,34.4,27.3,14.1,0000.0,0023.80,0005.63,0003.91
2022-03-25 18:04:00,,0830.4,5.00,0.00,25.5,24.8,00.0,34.4,27.3,14.0,0000.0,0024.39,0005.62,0003.91
2022-03-25 18:05:00,,0830.4,5.01,0.00,25.5,24.8,00.0,34.4,27.3,14.3,0000.0,0022.92,0005.60,0003.92
2022-03-25 18:06:00,,0830.4,5.00,0.00,25.5,24.9,00.0,34.4,27.3,14.0,0000.0,0023.15,0005.62,0003.94
2022-03-25 18:07:00,,0830.4,5.00,0.00,25.5,24.8,00.0,34.4,27.2,13.8,0000.0,0023.61,0005.65,0003.95
2022-03-25 18:08:00,,0830.4,4.98,0.00,25.4,24.8,00.0,34.4,27.2,14.1,0000.0,0022.05,0005.58,0003.96
2022-03-25 18:09:00,,0830.4,5.01,0.00,25.4,24.8,00.0,34.4,27.2,13.8,0000.0,0019.57,0005.58,0003.97
2022-03-25 18:10:00,,0830.4,5.01,0.00,25.4,24.8,00.0,34.4,27.2,14.0,0000.0,0018.83,0005.59,0003.98
2022-03-25 18:11:00,,0830.4,5.00,0.00,25.4,24.8,00.0,34.4,27.2,14.1,0000.0,0018.37,0005.62,0004.00
2022-03-25 18:12:00,,0830.4,4.99,0.00,25.4,24.8,00.0,34.4,27.3,13.9,0000.0,0017.27,0005.62,0004.01
2022-03-25 18:13:00,,0830.4,5.00,0.00,25.4,24.8,00.0,34.4,27.3,13.8,0000.0,0017.06,0005.61,0004.02
2022-03-25 18:14:00,,0830.3,5.00,0.00,25.4,24.8,00.0,34.4,27.3,13.8,0000.0,0016.41,0005.64,0004.04
2022-03-25 18:15:00,,0830.3,5.00,0.00,25.5,24.8,00.0,34.4,27.3,14.0,0000.0,0017.02,0005.62,0004.04
2022-03-25 18:16:00,,0830.3,5.00,0.00,25.5,24.8,00.0,34.4,27.3,13.7,0000.0,0017.06,0005.63,0004.07
2022-03-25 18:17:00,,0830.2,5.00,0.00,25.5,24.8,00.0,34.4,27.3,13.9,0000.0,0016.77,0005.61,0004.07
2022-03-25 18:18:00,,0830.2,5.01,0.00,25.5,24.8,00.0,34.4,27.3,14.2,0000.0,0016.03,0005.55,0004.07
2022-03-25 18:19:00,,0830.2,5.00,0.00,25.5,24.8,00.0,34.4,27.2,14.4,0000.0,0016.68,0005.59,0004.08
2022-03-25 18:20:00,,0830.2,4.99,0.00,25.5,24.8,00.0,34.4,27.2,13.7,0000.0,0018.29,0005.62,0004.11
2022-03-25 18:21:00,,0830.2,5.01,0.00,25.4,24.8,00.0,34.4,27.2,13.8,0000.0,0018.55,0005.67,0004.11
2022-03-25 18:22:00,,0830.2,5.00,0.00,25.4,24.7,00.0,34.4,27.2,13.6,0000.0,0018.81,0005.65,0004.13
2022-03-25 18:23:00,,0830.2,5.01,0.00,25.4,24.7,00.0,34.4,27.2,13.7,0000.0,0019.53,0005.70,0004.15
2022-03-25 18:24:00,,0830.1,4.99,0.00,25.5,24.8,00.0,34.4,27.3,13.9,0000.0,0020.65,0005.76,0004.17
2022-03-25 18:25:00,,0830.1,5.01,0.00,25.5,24.8,00.0,34.5,27.4,13.9,0000.0,0021.11,0005.74,0004.18
2022-03-25 18:26:00,,0830.1,5.01,0.00,25.5,24.9,00.0,34.5,27.4,14.1,0000.0,0020.00,0005.76,0004.19
2022-03-25 18:27:00,,0830.0,5.01,0.00,25.5,24.9,00.0,34.5,27.4,14.3,0000.0,0019.90,0005.77,0004.18
2022-03-25 18:28:00,,0830.0,5.00,0.00,25.5,24.9,00.0,34.5,27.4,14.5,0000.0,0020.65,0005.84,0004.20
2022-03-25 18:29:00,,0830.1,4.99,0.00,25.6,24.9,00.0,34.5,27.4,14.4,0000.0,0022.18,0005.91,0004.22
2022-03-25 18:30:00,,0830.1,5.01,0.00,25.6,24.9,00.0,34.5,27.4,13.9,0000.0,0022.55,0006.00,0004.24
2022-03-25 18:31:00,,0830.1,5.00,0.00,25.5,24.8,00.0,34.5,27.4,13.8,0000.0,0021.14,0006.02,0004.25
2022-03-25 18:32:00,,0830.0,5.00,0.00,25.5,24.8,00.0,34.5,27.4,13.8,0000.0,0020.06,0005.97,0004.26
2022-03-25 18:33:00,,0830.0,4.99,0.00,25.6,24.9,00.0,34.5,27.4,14.1,0000.0,0019.85,0006.05,0004.29
2022-03-25 18:34:00,,0830.0,5.00,0.00,25.6,24.9,00.0,34.5,27.4,13.9,0000.0,0019.93,0006.09,0004.32
2022-03-25 18:35:00,,0830.0,5.01,0.00,25.6,24.9,00.0,34.5,27.5,13.7,0000.0,0018.95,0006.12,0004.34
2022-03-25 18:36:00,,0830.0,5.00,0.00,25.6,25.0,00.0,34.5,27.5,13.9,0000.0,0018.97,0006.21,0004.35
2022-03-25 18:37:00,,0830.0,4.99,0.00,25.7,25.0,00.0,34.5,27.5,14.0,0000.0,0018.23,0006.23,0004.38
2022-03-25 18:38:00,,0830.0,5.01,0.00,25.7,25.1,00.0,34.6,27.6,14.0,0000.0,0018.14,0006.29,0004.41
2022-03-25 18:39:00,,0830.0,5.00,0.00,25.7,25.1,00.0,34.6,27.6,13.7,0000.0,0017.67,0006.39,0004.44
2022-03-25 18:40:00,,0830.0,5.00,0.00,25.7,25.1,00.0,34.6,27.6,13.9,0000.0,0016.30,0006.43,0004.47
2022-03-25 18:41:00,,0830.0,5.01,0.00,25.7,25.1,00.0,34.6,27.6,13.8,0000.0,0015.05,0006.38,0004.49
2022-03-25 18:42:00,,0830.0,5.00,0.00,25.7,25.1,00.0,34.6,27.6,13.7,0000.0,0015.32,0006.38,0004.53
2022-03-25 18:43:00,,0830.0,5.01,0.00,25.8,25.1,00.0,34.6,27.6,13.6,0000.0,0016.46,0006.39,0004.56
2022-03-25 18:44:00,,0830.0,4.98,0.00,25.8,25.1,00.0,34.6,27.7,13.7,0000.0,0017.29,0006.41,0004.58
2022-03-25 18:45:00,,0829.9,5.00,0.00,25.8,25.2,00.0,34.7,27.7,14.1,0000.0,0017.50,0006.44,0004.58
2022-03-25 18:46:00,,0829.8,5.01,0.00,25.9,25.2,00.0,34.7,27.7,14.3,0000.0,0016.65,0006.39,0004.58
2022-03-25 18:47:00,,0829.8,5.00,0.00,25.9,25.3,00.0,34.7,27.8,13.9,0000.0,0016.41,0006.38,0004.60
2022-03-25 18:48:00,,0829.8,5.00,0.00,25.9,25.3,00.0,34.7,27.8,14.0,0000.0,0017.36,0006.39,0004.62
2022-03-25 18:49:00,,0829.8,4.99,0.00,25.9,25.3,00.0,34.7,27.8,13.7,0000.0,0018.09,0006.39,0004.64
2022-03-25 18:50:00,,0829.7,5.01,0.00,26.0,25.4,00.0,34.8,27.8,13.8,0000.0,0018.22,0006.32,0004.65
2022-03-25 18:51:00,,0829.7,5.00,0.00,26.0,25.4,00.0,34.8,27.9,13.8,0000.0,0018.52,0006.26,0004.66
2022-03-25 18:52:00,,0829.8,4.99,0.00,26.0,25.4,00.0,34.8,27.9,13.7,0000.0,0019.86,0006.30,0004.69
2022-03-25 18:53:00,,0829.9,5.01,0.00,26.0,25.4,00.0,34.8,27.9,13.6,0000.0,0021.32,0006.38,0004.70
2022-03-25 18:54:00,,0829.9,4.99,0.00,26.1,25.5,00.0,34.8,28.0,13.9,0000.0,0023.74,0006.48,0004.70
2022-03-25 18:55:00,,0829.8,5.01,0.00,26.1,25.5,00.0,34.9,28.0,14.1,0000.0,0024.11,0006.46,0004.71
2022-03-25 18:56:00,,0829.8,5.01,0.00,26.1,25.5,00.0,34.9,28.0,13.8,0000.0,0023.77,0006.41,0004.73
2022-03-25 18:57:00,,0829.8,4.98,0.00,26.1,25.5,00.0,34.9,28.0,13.7,0000.0,0024.54,0006.38,0004.75
2022-03-25 18:58:00,,0829.8,5.00,0.00,26.1,25.5,00.0,34.9,28.0,13.8,0000.0,0024.98,0006.33,0004.77
2022-03-25 18:59:00,,0829.8,5.00,0.00,26.1,25.5,00.0,34.9,28.0,14.3,0000.0,0025.70,0006.37,0004.79
